Weather History for GMMX - May, 2012

Change the Weather History Date:

Friday, May 4, 2012

  Actual Average Record
Temperature  
Mean Temperature 68 °F -  
Max Temperature 77 °F 82 °F 95 °F (2014)
Min Temperature 59 °F 58 °F 50 °F (2004)
Cooling Degree Days 3    
Growing Degree Days 18 (Base 50)    
Moisture  
Dew Point 50 °F    
Average Humidity 58    
Maximum Humidity 82    
Minimum Humidity 22    
Precipitation  
Precipitation 0.00 in 0.03 in - ()
Sea Level Pressure  
Sea Level Pressure 30.03 in    
Wind  
Wind Speed 6 mph ()    
Max Wind Speed 12 mph    
Max Gust Speed -    
Visibility 6.2 miles    
Events      
Averages and records for this station are not official NWS values.
T = Trace of Precipitation, MM = Missing Value Source: Averaged Metar Reports

Daily Weather History Graph

Daily Weather History Graph

Search for Another Location

Airport or City:

Trip Planner

Search our weather history database for the weather conditions in past years. The results will help you decide how hot, cold, wet, or windy it might be!

Date:

Astronomy

May. 04, 2012 Rise Set
Actual Time 6:43 AM WEST 8:14 PM WEST
Civil Twilight 6:17 AM WEST 8:40 PM WEST
Nautical Twilight 5:46 AM WEST 9:11 PM WEST
Astronomical Twilight 5:14 AM WEST 9:44 PM WEST
Moon 6:39 PM WEST (5/4) 5:09 AM WEST (5/4)
Length of Visible Light 14h 22m
Length of Day
13h 30m
Waxing Gibbous, 96% of the Moon is Illuminated
May 4
Waxing Gibbous
May 6
Full
May 12
Last Quarter
May 21
New
May 28
First Quarter

Hourly Weather History & Observations

Time (WEST) Temp. Dew Point Humidity Pressure Visibility Wind Dir Wind Speed Gust Speed Precip Events Conditions
12:00 AM 62.6 °F 51.8 °F 68% 30.09 in 6.2 mi WNW 6.9 mph - N/A   Scattered Clouds
12:30 AM 60.8 °F 51.8 °F 72% 30.09 in 6.2 mi West 9.2 mph - N/A   Scattered Clouds
1:00 AM 61 °F 52 °F 64% 30.06 in 6 mi West 6.9 mph - -   Partly Cloudy
1:00 AM 60.8 °F 51.8 °F 72% 30.09 in 6.2 mi West 6.9 mph - N/A   Scattered Clouds
1:30 AM 60.8 °F 51.8 °F 72% 30.06 in 6.2 mi West 5.8 mph - N/A   Scattered Clouds
2:00 AM 60.8 °F 51.8 °F 72% 30.06 in 6.2 mi WNW 5.8 mph - N/A   Scattered Clouds
2:30 AM 60.8 °F 51.8 °F 72% 30.06 in 6.2 mi WNW 4.6 mph - N/A   Scattered Clouds
3:00 AM 59.0 °F 53.6 °F 82% 30.04 in 6.2 mi West 4.6 mph - N/A   Scattered Clouds
3:30 AM 59.0 °F 53.6 °F 82% 30.04 in 6.2 mi West 4.6 mph - N/A   Unknown
4:00 AM 59 °F 54 °F 77% 30.01 in 6 mi West 4.6 mph - -  
4:00 AM 59.0 °F 53.6 °F 82% 30.04 in 6.2 mi West 4.6 mph - N/A   Unknown
4:30 AM 59.0 °F 53.6 °F 82% 30.04 in 6.2 mi WNW 4.6 mph - N/A   Unknown
5:00 AM 59.0 °F 53.6 °F 82% 30.04 in 6.2 mi West 5.8 mph - N/A   Unknown
5:30 AM 59.0 °F 53.6 °F 82% 30.04 in 6.2 mi West 6.9 mph - N/A   Unknown
6:00 AM 59.0 °F 53.6 °F 82% 30.04 in 6.2 mi West 6.9 mph - N/A   Unknown
6:30 AM 59.0 °F 53.6 °F 82% 30.04 in 6.2 mi West 4.6 mph - N/A   Scattered Clouds
7:00 AM 59 °F 53 °F 74% 30.02 in 6 mi WNW 4.6 mph - -   Mostly Cloudy
7:00 AM 59.0 °F 53.6 °F 82% 30.04 in 6.2 mi WNW 4.6 mph - N/A   Scattered Clouds
7:30 AM 59.0 °F 53.6 °F 82% 30.04 in 6.2 mi West 3.5 mph - N/A   Mostly Cloudy
8:00 AM 59.0 °F 53.6 °F 82% 30.04 in 6.2 mi WSW 4.6 mph - N/A   Mostly Cloudy
8:30 AM 60.8 °F 53.6 °F 77% 30.04 in 6.2 mi WSW 4.6 mph - N/A   Overcast
9:00 AM 60.8 °F 53.6 °F 77% 30.04 in 6.2 mi West 3.5 mph - N/A   Overcast
9:30 AM 62.6 °F 53.6 °F 72% 30.06 in 6.2 mi West 4.6 mph - N/A   Overcast
10:00 AM 63 °F 53 °F 62% 30.03 in 6 mi West 5.8 mph - -   Mostly Cloudy
10:00 AM 62.6 °F 53.6 °F 72% 30.06 in 6.2 mi West 4.6 mph - N/A   Mostly Cloudy
10:30 AM 64.4 °F 53.6 °F 68% 30.06 in 6.2 mi WNW 4.6 mph - N/A   Mostly Cloudy
11:00 AM 66.2 °F 53.6 °F 64% 30.06 in 6.2 mi WNW 5.8 mph - N/A   Mostly Cloudy
11:30 AM 66.2 °F 53.6 °F 64% 30.06 in 6.2 mi WSW 6.9 mph - N/A   Mostly Cloudy
12:00 PM 68.0 °F 51.8 °F 56% 30.06 in 6.2 mi Variable 3.5 mph - N/A   Mostly Cloudy
12:30 PM 68.0 °F 48.2 °F 49% 30.06 in 6.2 mi South 4.6 mph - N/A   Mostly Cloudy
1:00 PM 69.8 °F 48.2 °F 46% 30.06 in 6.2 mi Variable 5.8 mph - N/A   Mostly Cloudy
1:30 PM 71.6 °F 50.0 °F 46% 30.04 in 6.2 mi West 6.9 mph - N/A   Mostly Cloudy
2:00 PM 71.6 °F 50.0 °F 46% 30.04 in 6.2 mi West 6.9 mph - N/A   Mostly Cloudy
2:30 PM 73.4 °F 48.2 °F 41% 30.04 in 6.2 mi Variable 6.9 mph - N/A   Mostly Cloudy
3:00 PM 73.4 °F 48.2 °F 41% 30.01 in 6.2 mi Variable 3.5 mph - N/A   Mostly Cloudy
3:30 PM 75.2 °F 48.2 °F 38% 30.01 in 6.2 mi NNE 3.5 mph - N/A   Mostly Cloudy
4:00 PM 74 °F 47 °F 27% 29.94 in 6 mi SSW 8.1 mph - -   Mostly Cloudy
4:00 PM 75.2 °F 46.4 °F 36% 30.01 in 6.2 mi SSW 6.9 mph - N/A   Mostly Cloudy
4:30 PM 75.2 °F 46.4 °F 36% 30.01 in 6.2 mi Variable 4.6 mph - N/A   Mostly Cloudy
5:00 PM 75.2 °F 46.4 °F 36% 29.98 in 6.2 mi WNW 6.9 mph - N/A   Mostly Cloudy
5:30 PM 75.2 °F 44.6 °F 34% 29.98 in 6.2 mi Variable 2.3 mph - N/A   Mostly Cloudy
6:00 PM 75.2 °F 44.6 °F 34% 29.98 in 6.2 mi Variable 4.6 mph - N/A   Mostly Cloudy
6:30 PM 75.2 °F 44.6 °F 34% 29.98 in 6.2 mi West 9.2 mph - N/A   Scattered Clouds
7:00 PM 76 °F 45 °F 22% 29.92 in 6 mi West 8.1 mph - -   Partly Cloudy
7:00 PM 77.0 °F 44.6 °F 32% 29.98 in 6.2 mi West 8.1 mph - N/A   Scattered Clouds
7:30 PM 75.2 °F 44.6 °F 34% 29.98 in 6.2 mi West 8.1 mph - N/A   Scattered Clouds
8:00 PM 73.4 °F 44.6 °F 36% 30.01 in 6.2 mi West 10.4 mph - N/A   Scattered Clouds
8:30 PM 71.6 °F 46.4 °F 41% 30.01 in 6.2 mi West 8.1 mph - N/A   Partly Cloudy
9:00 PM 71.6 °F 46.4 °F 41% 30.01 in 6.2 mi NW 10.4 mph - N/A   Partly Cloudy
9:30 PM 69.8 °F 46.4 °F 43% 30.01 in 6.2 mi NW 11.5 mph - N/A   Scattered Clouds
10:00 PM 67 °F 47 °F 38% 29.99 in 6 mi WNW 10.4 mph - -   Scattered Clouds
10:00 PM 68.0 °F 46.4 °F 46% 30.04 in 6.2 mi NW 11.5 mph - N/A   Scattered Clouds
10:30 PM 66.2 °F 48.2 °F 52% 30.04 in 6.2 mi WNW 10.4 mph - N/A   Scattered Clouds
11:00 PM 64.4 °F 48.2 °F 56% 30.06 in 6.2 mi WNW 8.1 mph - N/A   Partly Cloudy
11:30 PM 62.6 °F 48.2 °F 59% 30.06 in 6.2 mi NW 6.9 mph - N/A   Partly Cloudy